Normandy Lake Weather Center

Moon Phase Calendar



Normandy Lake Water Level
Online Cameras

 


      

Current Conditions in Flowertown
9/28/2021 5:05:02 AM

57°F
Feels Like 57
Clear
Humidity
99%
Pressure
30.06"
Wind
0
Dew Point
56°F
UV Index
0/10 (Low)
Visibility
6 mi

Hourly Forecast

Date & Time Tue, Sep 28
5:00 AM
Tue, Sep 28
6:00 AM
Tue, Sep 28
7:00 AM
Tue, Sep 28
8:00 AM
Tue, Sep 28
9:00 AM
Tue, Sep 28
10:00 AM
Tue, Sep 28
11:00 AM
Tue, Sep 28
12:00 PM
Tue, Sep 28
1:00 PM
Tue, Sep 28
2:00 PM
Tue, Sep 28
3:00 PM
Tue, Sep 28
4:00 PM
Tue, Sep 28
5:00 PM
Tue, Sep 28
6:00 PM
Tue, Sep 28
7:00 PM
Tue, Sep 28
8:00 PM
Tue, Sep 28
9:00 PM
Tue, Sep 28
10:00 PM
Tue, Sep 28
11:00 PM
Wed, Sep 29
12:00 AM
Wed, Sep 29
1:00 AM
Wed, Sep 29
2:00 AM
Wed, Sep 29
3:00 AM
Wed, Sep 29
4:00 AM
Wed, Sep 29
5:00 AM
Wed, Sep 29
6:00 AM
Wed, Sep 29
7:00 AM
Wed, Sep 29
8:00 AM
Wed, Sep 29
9:00 AM
Wed, Sep 29
10:00 AM
Wed, Sep 29
11:00 AM
Wed, Sep 29
12:00 PM
Wed, Sep 29
1:00 PM
Wed, Sep 29
2:00 PM
Wed, Sep 29
3:00 PM
Wed, Sep 29
4:00 PM
Wed, Sep 29
5:00 PM
Wed, Sep 29
6:00 PM
Wed, Sep 29
7:00 PM
Wed, Sep 29
8:00 PM
Wed, Sep 29
9:00 PM
Wed, Sep 29
10:00 PM
Wed, Sep 29
11:00 PM
Thu, Sep 30
12:00 AM
Thu, Sep 30
1:00 AM
Thu, Sep 30
2:00 AM
Thu, Sep 30
3:00 AM
Thu, Sep 30
4:00 AM
Condition
Clear

Clouds

Clouds

Clear

Clear

Clear

Clear

Clear

Clear

Clear

Clear

Clear

Clear

Clear

Clear

Clear

Clear

Clear

Clear

Clear

Clear

Clear

Clear

Clear

Clear

Clear

Clear

Clear

Clear

Clear

Clear

Clear

Clear

Clear

Clear

Clear

Clouds

Clouds

Clouds

Clouds

Clouds

Clouds

Clouds

Clouds

Clouds

Clouds

Clouds

Clouds
Temperature 57°F57°F57°F60°F65°F71°F73°F76°F77°F78°F79°F78°F77°F73°F69°F68°F67°F66°F65°F65°F65°F64°F64°F63°F63°F63°F63°F67°F71°F75°F78°F80°F81°F81°F81°F81°F79°F74°F70°F69°F68°F67°F66°F66°F65°F65°F65°F64°F
Feels Like 57°F57°F57°F60°F65°F71°F74°F76°F78°F79°F79°F79°F78°F74°F70°F68°F67°F66°F66°F65°F65°F65°F64°F64°F64°F63°F63°F68°F72°F76°F79°F80°F82°F83°F83°F82°F79°F74°F70°F69°F68°F67°F66°F66°F66°F65°F65°F65°F
Cloudiness 1%16%26%1%0%0%0%0%0%0%0%1%3%2%2%0%0%0%0%0%0%0%0%0%0%0%0%0%0%0%0%0%1%6%9%9%31%43%48%89%94%95%89%91%92%100%100%100%
Visibility 6 mi6 mi6 mi6 mi6 mi6 mi6 mi6 mi6 mi6 mi6 mi6 mi6 mi6 mi6 mi6 mi6 mi6 mi6 mi6 mi6 mi6 mi6 mi6 mi6 mi6 mi6 mi6 mi6 mi6 mi6 mi6 mi6 mi6 mi6 mi6 mi6 mi6 mi6 mi6 mi6 mi6 mi6 mi6 mi6 mi6 mi6 mi6 mi
Precipitation 0%0%0%0%0%0%0%0%0%0%0%0%0%0%0%0%0%0%0%0%0%0%0%0%0%0%0%0%0%0%0%0%0%0%0%0%0%0%0%0%0%0%0%0%0%0%0%0%
Humidity 99%97%95%90%81%72%70%68%66%64%62%63%71%79%85%87%89%90%91%91%91%91%92%92%92%92%92%87%79%73%68%63%60%57%56%57%68%73%75%75%77%79%81%83%84%84%84%83%
Dew Point 56°F56°F56°F57°F59°F61°F63°F64°F65°F65°F64°F65°F67°F66°F64°F63°F63°F62°F62°F62°F61°F61°F61°F61°F60°F60°F60°F63°F64°F66°F66°F66°F65°F64°F64°F64°F68°F64°F61°F60°F60°F60°F60°F60°F60°F60°F59°F59°F
Pressure 30.06"30.06"30.06"30.06"30.06"30.06"30.06"30.03"30.03"30"29.97"29.97"29.94"29.97"29.97"30"30"30"30"30"30"30"30"30"30"30.03"30.03"30.03"30.06"30.06"30.06"30.03"30.03"30"29.97"29.97"29.97"29.97"30"30.03"30.03"30.03"30.03"30.03"30.03"30.03"30.03"30.03"
Wind Speed 4.6 mph5.1 mph4.5 mph3.8 mph4.6 mph5.1 mph5.5 mph5.6 mph5 mph4.8 mph4.6 mph4.6 mph3.6 mph3 mph2.7 mph3 mph3.3 mph3.6 mph3.1 mph2.8 mph2.6 mph2.4 mph2.3 mph2.2 mph2.9 mph3.2 mph3.1 mph2.9 mph2.4 mph1.5 mph1.9 mph2.8 mph3.7 mph3.5 mph2.9 mph2.2 mph3 mph2.3 mph1.9 mph3.3 mph4.2 mph3.6 mph4 mph4 mph3.7 mph3.1 mph2.9 mph3.5 mph
Wind
Direction
192°
SSW
194°
SSW
186°
S
187°
S
207°
SSW
225°
SW
233°
SW
241°
WSW
252°
WSW
255°
WSW
249°
WSW
244°
WSW
237°
WSW
206°
SSW
170°
S
152°
SSE
152°
SSE
150°
SSE
145°
SE
133°
SE
126°
SE
153°
SSE
172°
S
123°
ESE
102°
ESE
104°
ESE
107°
ESE
96°
E
84°
E
43°
NE
47°
NE
51°
NE
60°
ENE
62°
ENE
59°
ENE
57°
ENE
62°
ENE
60°
ENE
49°
NE
85°
E
95°
E
109°
ESE
108°
ESE
111°
ESE
116°
ESE
123°
ESE
118°
ESE
110°
ESE

Daily Forecast

Date High Low Precip. Humidity
Today
Sep 28

Clear
79 °F
57 °F
0%
68%
Wednesday
Sep 29

Clear
81 °F
63 °F
0%
63%
Thursday
Sep 30

Rain
80 °F
64 °F
42%
62%
Friday
Oct 1

Rain
77 °F
66 °F
100%
78%
Saturday
Oct 2

Rain
76 °F
65 °F
100%
80%
Sunday
Oct 3

Rain
71 °F
63 °F
100%
90%
Monday
Oct 4

Rain
75 °F
62 °F
100%
74%
Tuesday
Oct 5

Rain
76 °F
63 °F
93%
77%
Wednesday
Oct 6

Rain
76 °F
64 °F
79%
69%
Thursday
Oct 7

Rain
71 °F
63 °F
56%
84%
Friday
Oct 8

Rain
75 °F
64 °F
100%
73%
Saturday
Oct 9

Rain
77 °F
64 °F
97%
78%
Sunday
Oct 10

Rain
80 °F
64 °F
23%
65%
Monday
Oct 11

Clouds
81 °F
65 °F
0%
62%
Tuesday
Oct 12

Rain
79 °F
64 °F
100%
66%
Wednesday
Oct 13

Rain
65 °F
54 °F
20%
72%

Temperature 8-14 Day Outlook



Precipitation 8-14 Day Outlook




Quick Links
Normandy Lake News
Normandy Lake Photos
Normandy Lake Videos




About Us
Contact Us
Site Map
Search Site
Advertise With Us
   
Normandy.LakesOnline.com
THE NORMANDY LAKE WEBSITE

Copyright 2021, Lakes Online
Privacy    |    Legal